Back to catalog

GLOBALSTAR M068

AliveCommunicationsLEO
NORAD 32266·PAYLOAD·🇺🇸 United States

Launched Oct 20, 2007 from Baikonur Cosmodrome

Loading…

Next Passes (next 24 hours)

TLE

FreshSource: Space-Track

Epoch: Sep 14, 2026, 07:07 UTC

1 32266U 07048D   26257.29704517 -.00000086  00000-0  98694-4 0  9990
2 32266  51.9913 357.9378 0001416  76.9101 317.2042 12.62850514874931

Track GLOBALSTAR M068 in real time with AllMySat

Download on the App Store